Content
SEND FEEDBACK

Daily
Averages
Monthly
Summary
United States of America

BELLEFONTE, DELAWARE


Home > North America > United States > Delaware
Elevation: 269 feet     Latitude: 39 46N     Longitude: 075 31W

WEATHER
 
SELECT A DAY
Number of Records: 205,947;   Date Range: 1/1/95 - 11/20/14
 
SHARE

PRINT THIS DATA

[ ← Previous Day ]
WEATHER ALMANAC - JANUARY 23, 2013
[ Next Day → ]
[ °C ]   °F
Weather ElementAverageHighLow
Temperature16.6 °F21.9 °F (1:51 pm)10.9 °F (3:51 am)
Dewpoint0.2 °F3 °F (10:51 am)-2 °F (1:51 am)
Humidity49.2 %61 % (5:51 am)38 % (1:51 pm)
Barometer30.27 in30.33 in (8:51 am)30.20 in (11:51 pm)
Wind Speed7.8 mph18.4 mph (11:51 am)
Wind Gust21.9 mph (10:51 am)
Weather ElementAverage
Visibility10 mi
Wind DirectionWSW (249.1 °)

Weather ElementTotal
Precipitation---
Heating Degree Days48.6 (Base 65)
Averaged from 23 records on January 23, 2013
WEATHER CONDITIONS BREAKOUT
WIND DIRECTION BREAKOUT
WEATHER BY HOUR - JANUARY 23, 2013
[ °C ]   °F
Local TimeTemperatureDewpointHumidityBarometerVisibilityWind DirectionWind SpeedGust SpeedPrecipitationEventsConditions
1:51 AM12.0 °F-2.0 °F53 %30.29 inWest (260°)4.6 mphClear
2:51 AM12.0 °F-0.9 °F56 %30.30 inWSW (250°)4.6 mphClear
3:51 AM10.9 °F-0.9 °F59 %30.29 inWSW (250°)4.6 mphClear
4:51 AM12.0 °F0.0 °F59 %30.30 inWest (270°)8.1 mphClear
5:51 AM10.9 °F0.0 °F61 %30.30 inWest (260°)5.8 mphClear
6:51 AM12.0 °F-0.9 °F56 %30.31 in10.0 miWest (270°)6.9 mphClear
7:51 AM12.9 °F0.0 °F56 %30.32 in10.0 miWest (270°)5.8 mphClear
8:51 AM16.0 °F1.0 °F52 %30.33 in10.0 miWest (280°)11.5 mphClear
9:51 AM18.0 °F1.0 °F48 %30.33 in10.0 miWNW (290°)13.8 mphClear
10:51 AM19.9 °F3.0 °F48 %30.33 in10.0 miWest (280°)13.8 mph21.9 mphScattered Clouds
11:51 AM19.0 °F0.0 °F43 %30.29 in10.0 miWest (280°)18.4 mph21.9 mphMostly Cloudy
12:51 PM19.9 °F0.0 °F42 %30.25 in10.0 miWNW (290°)11.5 mphOvercast
1:51 PM21.9 °F0.0 °F38 %30.24 in10.0 miWest (270°)15.0 mph20.7 mphOvercast
2:51 PM21.2 °F-0.4 °F39 %30.23 in10.0 miWest (280°)10.4 mph19.6 mphMostly Cloudy
3:51 PM21.2 °F-0.4 °F39 %30.23 in10.0 miWNW (300°)12.7 mphOvercast
4:51 PM19.9 °F-0.9 °F40 %30.23 in10.0 miWest (280°)11.5 mphClear
5:51 PM17.1 °F-0.9 °F45 %30.24 in10.0 miNW (310°)6.9 mphPartly Cloudy
6:51 PM18.0 °F1.9 °F50 %30.23 in10.0 miNW (320°)4.6 mphOvercast
7:51 PM18.0 °F1.0 °F48 %30.21 in10.0 miNorth (360°)3.5 mphScattered Clouds
8:51 PM18.0 °F0.0 °F45 %30.22 in10.0 miCalmClear
9:51 PM18.0 °F1.9 °F50 %30.22 in10.0 miCalmOvercast
10:51 PM16.0 °F1.9 °F54 %30.22 in10.0 miNorth (360°)5.8 mphOvercast
11:51 PM17.1 °F1.0 °F50 %30.20 in10.0 miCalmOvercast
Hourly data recorded from KILG, located miles away from Bellefonte, Delaware







STORIES FROM OUR PARTNERS